Location: Brompton
(51.4000°N, 0.5333°E)
Time: 02:01:19
(UTC+00:00)

SPOT 1/Viking Rocket - Pass Details

Date: 11 May 2021
Orbit: 776 x 795 km, 98.4° (Epoch: 13 June)

Event Time Altitude Azimuth Distance (km) Brightness Sun altitude
Exits shadow 21:23:34 10° 185° (S) 2,383 5.6 -13.1°
Reaches altitude 10° 21:23:39 10° 185° (S) 2,353 5.6 -13.1°
Maximum altitude 21:28:41 50° 260° (W) 1,000 4.3 -13.6°
Drops below altitude 10° 21:33:45 10° 336° (NNW) 2,359 7.4 -14.0°
Sets 21:36:10 0° 342° (NNW) 3,289 8.4 -14.2°
